Flag Weather past 2 weeks in Grande Prairie, Alberta, Canada

Now
-2 °F

Ice fog.


Feels Like: -2 °F
Forecast: -3 / 18 °F
Wind: 2 mph from Northwest

Location: Grande Prairie

Current Time: Nov 26, 2014 at 12:09:37 PM

Latest Report: Nov 26, 2014 at 11:00 AM


Visibility: 3 mi

Pressure: 30.34 "Hg

Humidity: 84%

Dew point: -6 °F

Location of Grande PrairieLocation

Historic Weather in Grande Prairie — Graph

°F

Grande Prairie temperature yesterday

Maximum temperature yesterday: 27 °F (at 12:00 AM)
Minimum temperature yesterday: 3 °F (at 11:00 PM)
Average temperature yesterday: 14 °F

Past Weeks' High & Low Weather Summary

 TemperatureHumidityPressure
High39 °F (Nov 20, 9:45 PM)100% (Nov 16, 5:00 AM)30.98 "Hg (Nov 16, 5:00 AM)
Low-18 °F (Nov 13, 3:00 AM)60% (Nov 17, 11:00 PM)29.23 "Hg (Nov 22, 2:00 AM)
Average12 °F86%30.20 "Hg
* Reported Nov 11 11:00 AM — Nov 26 11:00 AM, Grande Prairie, Weather by CustomWeather, © 2014

Note: Actual official high and low records may vary slightly from our data, if they occured in-between our weather recording intervals... More about our weather records

Advertising

Grande Prairie weather history for previous 24 hours

 ConditionsComfort  
Time TempWeatherWind HumidityBarometerVisibility
11:00 AM
Nov 26
-2 °FIce fog.2 mph84%30.34 "Hg3 mi
10:00 AM-6 °FIce fog.6 mph84%30.34 "Hg0 mi
9:00 AM-6 °FIce fog.No wind77%30.32 "Hg1 mi
8:00 AM-6 °FIce fog.No wind77%30.31 "Hg1 mi
7:00 AM-6 °FIce fog.2 mph77%30.31 "Hg1 mi
6:00 AM-6 °FIce fog.3 mph77%30.31 "Hg0 mi
5:00 AM-6 °FIce fog.No wind84%30.31 "Hg0 mi
4:00 AM-6 °FIce fog.2 mph84%30.32 "Hg0 mi
3:00 AM-6 °FIce fog.3 mph84%30.32 "Hg0 mi
2:00 AM-2 °FIce fog.5 mph92%30.32 "Hg0 mi
1:00 AM0 °FIce fog.6 mph84%30.31 "Hg1 mi
12:00 AM0 °FPassing clouds.6 mph84%30.32 "Hg20 mi
11:00 PM
Nov 25
3 °FPassing clouds.5 mph85%30.31 "Hg25 mi
10:00 PM5 °FOvercast.3 mph92%30.31 "Hg25 mi
9:00 PM10 °FOvercast.3 mph92%30.30 "Hg25 mi
8:00 PM12 °FOvercast.2 mph92%30.29 "Hg25 mi
7:00 PM12 °FOvercast.6 mph92%30.29 "Hg20 mi
6:00 PM14 °FPassing clouds.6 mph85%30.28 "Hg20 mi
5:00 PM14 °FPassing clouds.6 mph92%30.29 "Hg20 mi
4:00 PM14 °FMore clouds than sun.5 mph92%30.29 "Hg20 mi
3:00 PM14 °FOvercast.6 mph92%30.28 "Hg10 mi
2:00 PM16 °FPartly sunny.5 mph86%30.28 "Hg10 mi
1:00 PM14 °FSnow flurries. Overcast.3 mph92%30.28 "Hg5 mi
12:00 PM14 °FLight snow. Overcast.5 mph85%30.27 "Hg1 mi
Weather by CustomWeather, © 2014

See weather overviewHow to use our weather pages